Weather History for West Plains, MO

Change the Weather History Date:

Sunday, January 6, 2013

  Actual Average Record
Temperature  
Mean Temperature 33 °F 34 °F  
Max Temperature 44 °F 44 °F 70 °F (2008)
Min Temperature 22 °F 23 °F -4 °F (2014)
Degree Days  
Heating Degree Days 32 31  
Month to date heating degree days 205 186  
Since 1 July heating degree days 1873 1931  
Cooling Degree Days 0 0  
Month to date cooling degree days 0 0  
Year to date cooling degree days 0 0  
Moisture  
Dew Point 22 °F    
Average Humidity 62    
Maximum Humidity 85    
Minimum Humidity 39    
Precipitation  
Precipitation 0.00 in 0.07 in 0.36 in (2002)
Month to date precipitation 0.01 0.41  
Year to date precipitation 0.01 0.41  
Sea Level Pressure  
Sea Level Pressure 30.30 in    
Wind  
Wind Speed 7 mph (NW)    
Max Wind Speed 16 mph    
Max Gust Speed 24 mph    
Visibility 10 miles    
Events      
T = Trace of Precipitation, MM = Missing Value Source: NWS Daily Summary

Daily Weather History Graph

Daily Weather History Graph

Search for Another Location

Airport:

Trip Planner

Search our weather history database for the weather conditions in past years. The results will help you decide how hot, cold, wet, or windy it might be!

Date:

Astronomy

Jan. 06, 2013 Rise Set
Actual Time 7:21 AM CST 5:06 PM CST
Civil Twilight 6:52 AM CST 5:35 PM CST
Nautical Twilight 6:20 AM CST 6:07 PM CST
Astronomical Twilight 5:48 AM CST 6:38 PM CST
Moon 1:39 AM CST (1/6) 12:31 PM CST (1/6)
Length of Visible Light 10h 42m
Length of Day
9h 45m
Waning Crescent, 33% of the Moon is Illuminated
Jan 6
Waning Crescent
Jan 11
New
Jan 18
First Quarter
Jan 26
Full
Feb 3
Last Quarter

Hourly Weather History & Observations

Time (CST) Temp. Windchill Dew Point Humidity Pressure Visibility Wind Dir Wind Speed Gust Speed Precip Events Conditions
12:53 AM 35.1 °F 29.3 °F 28.9 °F 78% 30.20 in 10.0 mi SW 6.9 mph - N/A   Clear
1:53 AM 35.1 °F - 28.9 °F 78% 30.20 in 10.0 mi North - - N/A   Clear
2:53 AM 34.0 °F - 28.9 °F 82% 30.19 in 10.0 mi North - - N/A   Clear
3:53 AM 32.0 °F 24.2 °F 28.9 °F 88% 30.19 in 9.0 mi West 9.2 mph - N/A   Clear
4:53 AM 32.0 °F 24.2 °F 28.0 °F 85% 30.19 in 9.0 mi West 9.2 mph - N/A   Clear
6:53 AM 30.9 °F 22.8 °F 25.0 °F 79% 30.23 in 10.0 mi WNW 9.2 mph - N/A   Clear
7:53 AM 30.0 °F 20.5 °F 24.1 °F 79% 30.26 in 10.0 mi NW 11.5 mph 19.6 mph N/A   Clear
8:53 AM 30.9 °F 20.7 °F 23.0 °F 72% 30.27 in 10.0 mi NW 13.8 mph 19.6 mph N/A   Clear
9:53 AM 33.1 °F 22.6 °F 23.0 °F 66% 30.30 in 10.0 mi NW 16.1 mph 24.2 mph N/A   Clear
10:53 AM 36.0 °F 27.1 °F 23.0 °F 59% 30.31 in 10.0 mi NNW 13.8 mph 19.6 mph N/A   Clear
11:53 AM 39.0 °F 32.8 °F 24.1 °F 55% 30.30 in 10.0 mi NNW 9.2 mph - N/A   Clear
12:53 PM 41.0 °F 33.1 °F 24.1 °F 51% 30.29 in 10.0 mi NW 15.0 mph - N/A   Clear
1:53 PM 41.0 °F 35.2 °F 23.0 °F 49% 30.30 in 10.0 mi NNW 9.2 mph - N/A   Clear
3:53 PM 42.1 °F 37.7 °F 19.0 °F 40% 30.33 in 10.0 mi NNW 6.9 mph - N/A   Clear
4:53 PM 37.9 °F 35.5 °F 18.0 °F 45% 30.35 in 10.0 mi North 3.5 mph - N/A   Clear
5:53 PM 35.1 °F 32.2 °F 17.1 °F 48% 30.36 in 10.0 mi NNW 3.5 mph - N/A   Clear
6:53 PM 30.9 °F - 17.1 °F 57% 30.37 in 10.0 mi Calm Calm - N/A   Clear
7:53 PM 30.0 °F - 17.1 °F 59% 30.39 in 10.0 mi Calm Calm - N/A   Clear
9:53 PM 25.0 °F - 16.0 °F 69% 30.40 in 10.0 mi Calm Calm - N/A   Clear
10:53 PM 23.0 °F - 16.0 °F 74% 30.40 in 10.0 mi Calm Calm - N/A   Clear
11:53 PM 21.9 °F - 16.0 °F 78% 30.40 in 10.0 mi Calm Calm - N/A   Clear